User: anonymous   Login
Location: Vancouver
(49.2500°N, 123.1330°W)
Time: 03:11:25
(UTC-07:00)
Language:

JAS-1B - Orbit

View from above orbital plane
View from above orbital plane
View from above satellite
View from above satellite

Ground track
Ground track

The orbit data is extracted from the following two-line orbital elements,

1 20480U 90013C   15149.01624000 -.00000036  00000-0  37394-6 0  9992
2 20480 099.0702 052.7050 0539363 290.9399 133.5535 12.83405501185493
Epoch (UTC): 29 May 2015 00:23:23
Eccentricity: 0.0539363
inclination: 99.0702°
perigee height: 912 km
apogee height: 1743 km
right ascension of ascending node: 52.7050°
argument of perigee: 290.9399°
revolutions per day: 12.83405501
mean anomaly at epoch: 133.5535°
orbit number at epoch: 18549

The dashed part of the orbit path shows where the satellite is in the earth's shadow,  

DLR